Location: M cDonald Observatory Visitors Center
(30.6776°N, 104.0264°W)
Time: 13:16:30
(UTC-06:00)

Hubble Space Telescope - Visible Passes

Search period start: 17 February 2020 00:00
Search period end: 27 February 2020 00:00
Orbit: 536 x 540 km, 28.5° (Epoch: 16 February)

Date Brightness Start Highest point End Pass type
(mag) Time Alt. Az. Time Alt. Az. Time Alt. Az.
17 Feb 2.8 19:47:53 10° S 19:50:12 15° SSE 19:51:25 13° SE visible
18 Feb 2.6 19:36:36 10° SSW 19:39:30 18° SSE 19:41:36 13° ESE visible
18 Feb 3.6 21:16:21 10° WSW 21:16:57 14° WSW 21:16:57 14° WSW visible
19 Feb 2.4 19:25:32 10° SSW 19:28:47 23° SSE 19:31:45 11° ESE visible
19 Feb 3.1 21:05:39 10° WSW 21:07:06 20° WSW 21:07:06 20° WSW visible
20 Feb 2.1 19:14:34 10° SW 19:18:06 27° SSE 19:21:37 10° ESE visible
20 Feb 2.5 20:54:58 10° WSW 20:57:12 30° WSW 20:57:12 30° WSW visible
21 Feb 1.7 20:44:18 10° WSW 20:47:17 43° SW 20:47:17 43° SW visible
22 Feb 1.1 20:33:39 10° W 20:37:21 60° SSW 20:37:21 60° SSW visible
23 Feb 0.8 20:23:01 10° W 20:27:07 65° S 20:27:23 62° SSE visible
24 Feb 0.9 20:12:23 10° W 20:16:29 64° S 20:17:26 47° SE visible
25 Feb 1.0 20:01:46 10° W 20:05:51 61° S 20:07:30 33° ESE visible
26 Feb 1.1 19:51:09 10° W 19:55:12 57° S 19:57:35 23° ESE visible
26 Feb 3.9 21:32:36 10° WSW 21:32:55 12° WSW 21:32:55 12° WSW visible
